Starlink 32540

operational
NORAD ID: 61723 Int'l Des: 2024-196 Owner: SPXS Country: US Constellation: starlink
LEOCIRCULAR

Starlink 32540について

説明を読み込み中...

リアルタイム位置

3D地球を読み込み中...

次回通過

高度履歴

Altitude vs Time

uPlot chart will show altitude changes over time

軌道要素

1 61723U 24196S 25352.24536325 .00000285 00000-0 21759-4 0 9991
2 61723 53.1617 83.8298 0001159 85.8342 274.2791 15.30189936 65185
Epoch: Dec 18, 2025 • Age: 13 hours

現在のステータス

高度 479.2 km
速度 7.63 km/s
衛星直下点 44.91°N, 158.45°W
打ち上げ日 Oct 30, 2024
運用期間 1.1 years
タイプ internet

技術仕様

分類 Payload
質量 730.00 kg
乾燥質量 700.00 kg
総質量 730.00 kg
長さ 0.30 m
直径 4.10 m
スパン 29.00 m
形状 Box + pan
製造者 SPXS
バスタイプ Starlink V2M
フェーズステータス In Orbit
所有者/国 SPXS/US

大規模コンステレーション

Loading constellations...